Weather in Incekum

Turkey     36°39′06″N   31°43′56″E
temp.,
°C
wind,
m/s
gust,
m/s
humid.,
%
clouds,
%
prec.,
mm/h
press.,
hPa
HPBL,
m
21 june, mon
mon2100:00+19ene11810 0.0 100911
03:00+18ene11833 0.0 100911
06:00+18ene22750 0.0 101021
09:00+23ssw22600 0.0 1010814
12:00+25s54561 0.0 10111356
15:00+25s445812 0.7 10111220
18:00+24ssw32572 0.1 1010860
21:00+19nne11817 0.1 101111
22 june, tue
tue2200:00+19nne118031 0.0 101211
03:00+18nne11785 0.0 101111
06:00+18ene22764 0.0 101115
09:00+23ssw21583 0.0 1012675
12:00+26ssw42501 0.0 10121182
15:00+26ssw32500 0.0 10121037
18:00+25sw32587 0.0 1012698
21:00+20nw11791 0.1 101211
23 june, wed
wed2300:00+20n11760 0.0 101212
03:00+20ne21680 0.0 101112
06:00+20ne11590 0.0 101112
09:00+26ssw21440 0.0 1011576
12:00+29ssw42440 0.0 1011984
15:00+29ssw42470 0.0 1011804
18:00+27sw32540 0.0 1011448
21:00+22ne11710 0.0 101211
24 june, thu
thu2400:00+23ne11550 0.0 101112
03:00+23nne22460 0.0 101116
06:00+23ne32430 0.0 101021
09:00+31wsw11280 0.0 1010729
12:00+32ssw43280 0.0 10101296
15:00+32ssw33330 0.0 10091075
18:00+30sw32421 0.0 1009470
21:00+25ne22590 0.0 101014
25 june, fri
fri2500:00+25ne22420 0.0 101022
03:00+24ne32410 0.0 100924
06:00+24ne43410 0.0 100941
09:00+32nne12270 0.0 1009978
12:00+32ssw33310 0.0 10091126
15:00+33ssw332916 0.0 1008953
18:00+30ssw22395 0.0 1008444
21:00+26ne11510 0.0 100912